St. Augustine, FL

10:10 PM EDT on July 27, 2017 (GMT -0400)
Saint Augustine

Weather History for KSGJ - January, 2005

Change the Weather History Date:

Saturday, January 8, 2005

  Actual Average Record
Temperature  
Mean Temperature 70 °F -  
Max Temperature 80 °F 62 °F 84 °F (1993)
Min Temperature 60 °F 44 °F 30 °F (2002)
Cooling Degree Days 5    
Growing Degree Days 20 (Base 50)    
Moisture  
Dew Point 63 °F    
Average Humidity 80    
Maximum Humidity 100    
Minimum Humidity 51    
Precipitation  
Precipitation 0.00 in - - ()
Sea Level Pressure  
Sea Level Pressure 30.27 in    
Wind  
Wind Speed 3 mph (SW)    
Max Wind Speed 12 mph    
Max Gust Speed 18 mph    
Visibility 7 miles    
Events      
Averages and records for this station are not official NWS values.
T = Trace of Precipitation, MM = Missing Value Source: NWS Daily Summary

Daily Weather History Graph

Daily Weather History Graph

Search for Another Location

Airport or City:

Trip Planner

Search our weather history database for the weather conditions in past years. The results will help you decide how hot, cold, wet, or windy it might be!

Date:

Astronomy

Jan. 08, 2005 Rise Set
Actual Time 7:22 AM EST 5:42 PM EST
Civil Twilight 6:56 AM EST 6:08 PM EST
Nautical Twilight 6:26 AM EST 6:38 PM EST
Astronomical Twilight 5:57 AM EST 7:07 PM EST
Moon 5:32 AM EST (1/8) 3:39 PM EST (1/8)
Length of Visible Light 11h 12m
Length of Day
10h 20m
Waning Crescent, 5% of the Moon is Illuminated
Jan 8
Waning Crescent
Jan 10
New
Jan 17
First Quarter
Jan 25
Full
Feb 2
Last Quarter

Hourly Weather History & Observations

Time (EST) Temp. Heat Index Dew Point Humidity Pressure Visibility Wind Dir Wind Speed Gust Speed Precip Events Conditions
12:15 AM 64.4 °F - 62.6 °F 94% 30.25 in 5.0 mi Calm Calm - N/A   Clear
12:35 AM 62.6 °F - 60.8 °F 94% 30.25 in 4.0 mi Calm Calm - N/A   Clear
12:55 AM 62.6 °F - 60.8 °F 94% 30.25 in 5.0 mi Calm Calm - N/A   Scattered Clouds
1:15 AM 62.6 °F - 60.8 °F 94% 30.24 in 7.0 mi Calm Calm - N/A   Partly Cloudy
1:35 AM 62.6 °F - 60.8 °F 94% 30.24 in 6.0 mi Calm Calm - N/A   Partly Cloudy
1:55 AM 62.6 °F - 60.8 °F 94% 30.25 in 5.0 mi Calm Calm - N/A   Scattered Clouds
2:15 AM 60.8 °F - 59.0 °F 94% 30.24 in 5.0 mi South 4.6 mph - N/A   Partly Cloudy
2:35 AM 62.6 °F - 60.8 °F 94% 30.23 in 3.0 mi South 4.6 mph - N/A   Clear
2:55 AM 64.4 °F - 62.6 °F 94% 30.23 in 5.0 mi South 5.8 mph - N/A   Clear
3:15 AM 64.4 °F - 62.6 °F 94% 30.23 in 5.0 mi South 5.8 mph - N/A   Scattered Clouds
3:35 AM 64.4 °F - 62.6 °F 94% 30.24 in 5.0 mi South 4.6 mph - N/A   Overcast
3:55 AM 64.4 °F - 62.6 °F 94% 30.25 in 5.0 mi Calm Calm - N/A   Mostly Cloudy
4:15 AM 62.6 °F - 60.8 °F 94% 30.25 in 1.2 mi Calm Calm - N/A   Mostly Cloudy
4:35 AM 62.6 °F - 60.8 °F 94% 30.25 in 0.5 mi Calm Calm - N/A   Overcast
4:55 AM 64.4 °F - 62.6 °F 94% 30.25 in 0.2 mi WSW 3.5 mph - N/A   Overcast
5:15 AM 64.4 °F - 62.6 °F 94% 30.27 in 0.2 mi West 3.5 mph - N/A   Overcast
5:35 AM 64.4 °F - 62.6 °F 94% 30.27 in 1.0 mi Calm Calm - N/A   Overcast
5:55 AM 64.4 °F - 62.6 °F 94% 30.28 in 4.0 mi Calm Calm - N/A   Overcast
6:15 AM 64.4 °F - 62.6 °F 94% 30.28 in 2.0 mi Calm Calm - N/A   Overcast
6:35 AM 62.6 °F - 62.6 °F 100% 30.29 in 0.2 mi SW 3.5 mph - N/A   Overcast
6:55 AM 62.6 °F - 60.8 °F 94% 30.29 in 0.2 mi Calm Calm - N/A   Overcast
7:15 AM 62.6 °F - 60.8 °F 94% 30.30 in 0.5 mi South 3.5 mph - N/A   Overcast
7:55 AM 62.6 °F - 62.6 °F 100% 30.30 in 5.0 mi South 4.6 mph - N/A   Partly Cloudy
8:15 AM 64.4 °F - 62.6 °F 94% 30.30 in 6.0 mi SSW 4.6 mph - N/A   Clear
8:35 AM 64.4 °F - 64.4 °F 100% 30.31 in 8.0 mi WSW 4.6 mph - N/A   Clear
8:55 AM 66.2 °F - 64.4 °F 94% 30.31 in 9.0 mi SSW 6.9 mph - N/A   Clear
9:15 AM 66.2 °F - 64.4 °F 94% 30.31 in 9.0 mi SSW 5.8 mph - N/A   Clear
9:35 AM 66.2 °F - 64.4 °F 94% 30.31 in 9.0 mi South 6.9 mph - N/A   Clear
9:55 AM 68.0 °F - 66.2 °F 94% 30.30 in 8.0 mi South 9.2 mph - N/A   Clear
10:15 AM 69.8 °F - 66.2 °F 88% 30.31 in 9.0 mi South 6.9 mph - N/A   Clear
10:35 AM 71.6 °F - 66.2 °F 83% 30.31 in 10.0 mi South 8.1 mph - N/A   Clear
10:55 AM 73.4 °F - 66.2 °F 78% 30.30 in 9.0 mi South 8.1 mph - N/A   Clear
11:15 AM 75.2 °F - 66.2 °F 73% 30.30 in 10.0 mi South 9.2 mph - N/A   Clear
11:35 AM 77.0 °F - 66.2 °F 69% 30.29 in 10.0 mi SSW 11.5 mph - N/A   Clear
11:55 AM 77.0 °F - 64.4 °F 65% 30.29 in 9.0 mi SSW 6.9 mph - N/A   Clear
12:15 PM 77.0 °F - 64.4 °F 65% 30.28 in 9.0 mi SSW 10.4 mph - N/A   Clear
12:35 PM 78.8 °F - 64.4 °F 61% 30.26 in 9.0 mi SSW 11.5 mph - N/A   Clear
12:55 PM 78.8 °F - 64.4 °F 61% 30.26 in 10.0 mi WSW 10.4 mph - N/A   Clear
1:15 PM 78.8 °F - 64.4 °F 61% 30.26 in 10.0 mi WSW 10.4 mph 18.4 mph N/A   Clear
1:35 PM 78.8 °F - 64.4 °F 61% 30.25 in 9.0 mi West 8.1 mph - N/A   Clear
1:55 PM 80.6 °F 82.3 °F 64.4 °F 58% 30.24 in 10.0 mi West 10.4 mph - N/A   Partly Cloudy
2:35 PM 80.6 °F 81.8 °F 62.6 °F 54% 30.23 in 10.0 mi WSW 10.4 mph 17.3 mph N/A   Partly Cloudy
2:55 PM 78.8 °F - 62.6 °F 57% 30.23 in 10.0 mi West 6.9 mph - N/A   Clear
3:15 PM 80.6 °F 81.5 °F 60.8 °F 51% 30.23 in 10.0 mi WSW 9.2 mph - N/A   Clear
3:35 PM 80.6 °F 81.5 °F 60.8 °F 51% 30.24 in 10.0 mi WSW 9.2 mph - N/A   Clear
3:55 PM 80.6 °F 81.5 °F 60.8 °F 51% 30.24 in 10.0 mi West 6.9 mph - N/A   Partly Cloudy
4:15 PM 80.6 °F 81.5 °F 60.8 °F 51% 30.25 in 10.0 mi West 6.9 mph - N/A   Partly Cloudy
4:35 PM 78.8 °F - 60.8 °F 54% 30.25 in 10.0 mi WSW 6.9 mph - N/A   Clear
4:55 PM 78.8 °F - 60.8 °F 54% 30.25 in 10.0 mi West 4.6 mph - N/A   Clear
5:15 PM 78.8 °F - 60.8 °F 54% 30.26 in 10.0 mi West 3.5 mph - N/A   Clear
5:35 PM 75.2 °F - 60.8 °F 61% 30.26 in 10.0 mi Calm Calm - N/A   Clear
5:55 PM 75.2 °F - 60.8 °F 61% 30.27 in 10.0 mi Calm Calm - N/A   Clear
6:15 PM 68.0 °F - 60.8 °F 78% 30.27 in 10.0 mi ESE 3.5 mph - N/A   Clear
6:35 PM 66.2 °F - 60.8 °F 83% 30.27 in 10.0 mi Calm Calm - N/A   Clear
6:55 PM 66.2 °F - 60.8 °F 83% 30.28 in 10.0 mi Calm Calm - N/A   Clear
7:15 PM 66.2 °F - 60.8 °F 83% 30.29 in 10.0 mi Calm Calm - N/A   Clear
7:35 PM 66.2 °F - 60.8 °F 83% 30.29 in 10.0 mi Calm Calm - N/A   Scattered Clouds
7:55 PM 66.2 °F - 60.8 °F 83% 30.30 in 10.0 mi Calm Calm - N/A   Scattered Clouds
8:15 PM 66.2 °F - 60.8 °F 83% 30.30 in 9.0 mi Calm Calm - N/A   Partly Cloudy
8:35 PM 64.4 °F - 60.8 °F 88% 30.30 in 7.0 mi Calm Calm - N/A   Clear
8:55 PM 64.4 °F - 60.8 °F 88% 30.31 in 10.0 mi Calm Calm - N/A   Partly Cloudy
9:15 PM 64.4 °F - 60.8 °F 88% 30.31 in 10.0 mi West 4.6 mph - N/A   Clear
9:55 PM 66.2 °F - 59.0 °F 78% 30.32 in 10.0 mi Calm Calm - N/A   Clear
10:15 PM 64.4 °F - 59.0 °F 83% 30.32 in 10.0 mi Calm Calm - N/A   Clear
10:35 PM 64.4 °F - 59.0 °F 83% 30.32 in 10.0 mi Calm Calm - N/A   Clear
10:55 PM 62.6 °F - 59.0 °F 88% 30.32 in 10.0 mi Calm Calm - N/A   Clear
11:15 PM 62.6 °F - 57.2 °F 82% 30.32 in 10.0 mi Calm Calm - N/A   Clear
11:35 PM 62.6 °F - 57.2 °F 82% 30.31 in 10.0 mi Calm Calm - N/A   Clear
11:55 PM 62.6 °F - 57.2 °F 82% 30.31 in 10.0 mi Calm Calm - N/A   Clear